Regional Weather Roundup
Issued by NWS

Home | Current Version | Previous Version | Text Only | Print | Product List | Glossary Off
Versions: 1 2 3 4 5 6 7 8 9 10 11 12 13 14 15 16 17 18 19 20 21 22 23 24 25 26 27 28 29 30 31 32 33 34 35 36 37 38 39 40 41 42 43 44 45 46 47 48 49 50

000
ASUS43 KLSX 221957
RWRMO

WEATHER SUMMARY FOR MISSOURI
NATIONAL WEATHER SERVICE SPRINGFIELD MO
200 PM CST WED FEB 22 2017

NOTE: "FAIR" INDICATES FEW OR NO CLOUDS BELOW 12,000 FEET WITH NO
       SIGNIFICANT WEATHER AND/OR OBSTRUCTIONS TO VISIBILITY.
       CURRENT SKY AND/OR WEATHER CONDITIONS ARE NOT AVAILABLE FOR
       CHILLICOTHE AND FARMINGTON.

MOZ001>031-035>038-043-044-053-054-222100-
...NORTHERN AND WESTERN MISSOURI...

CITY           SKY/WX    TMP DP  RH WIND       PRES   REMARKS
KANSAS CTY INT MOSUNNY   77  36  22 SW15G22   29.65F
LEE`S SUMMIT   PTSUNNY   77  39  25 SW20G29   29.67F
ST JOSEPH      SUNNY     74  37  26 W16       29.64F
CHILLICOTHE      N/A     73  44  35 SW13G25   29.66S

$$
MOZ066>068-077>081-088>096-101>105-222100-
...SOUTHWEST MISSOURI...

CITY           SKY/WX    TMP DP  RH WIND       PRES   REMARKS
SPRINGFIELD    SUNNY     68  56  65 SE9       29.76F
JOPLIN         SUNNY     76  46  34 SW15      29.74F
BRANSON        MOSUNNY   70  55  60 S6        29.80F

$$
MOZ032>034-039>042-045>050-055>058-069>072-222100-
...CENTRAL MISSOURI...

CITY           SKY/WX    TMP DP  RH WIND       PRES   REMARKS
COLUMBIA       NOT AVBL
JEFFERSON CITY PTSUNNY   62  55  77 S13       29.74F
ROLLA          MOSUNNY   64  56  75 S10       29.76F
SEDALIA        SUNNY     75  49  39 S17       29.71F
WARRENSBURG    MOSUNNY   72  46  40 S14G23    29.70F

$$
MOZ051-052-059>065-222100-
...EAST CENTRAL MISSOURI...

CITY           SKY/WX    TMP DP  RH WIND       PRES   REMARKS
ST LOUIS INTL  MOSUNNY   70  56  61 SW8       29.75F

$$
MOZ072>076-082>087-097>100-106>115-222100-
...SOUTH CENTRAL AND SOUTHEAST MISSOURI...

CITY           SKY/WX    TMP DP  RH WIND       PRES   REMARKS
CAPE GIRARDEAU SUNNY     70  56  61 S13       29.80F
POPLAR BLUFF   PTSUNNY   68  58  70 SW6       29.81F
WEST PLAINS    MOSUNNY   66  55  67 SW8       29.82F

$$


USA.gov is the U.S. government's official web portal to all federal, state and local government web resources and services.